"read_dt","SO2 (ppb)","flags","PMT voltage (V)","lamp voltage (V)","lamp intensity (Hz)","internal temp (C)","react chamber temp (C)","sample flow (l/min)","pres (mmHg)","SO2 bkg (ppb)","SO2 coefficient"
2016-03-27 00:00:00,1759E-3,5C000400,-0724,0835,12198,025.9,045.4,0.259,754.0,01.17,0.508
2016-03-27 00:01:00,1805E-3,5C000400,-0724,0836,12245,025.9,045.3,0.259,754.0,01.17,0.508
2016-03-27 00:02:00,1938E-3,5C000400,-0724,0835,12085,025.9,045.4,0.259,754.0,01.17,0.508
2016-03-27 00:03:00,1863E-3,5C000400,-0724,0835,12212,025.9,045.4,0.259,754.0,01.17,0.508
2016-03-27 00:04:00,1773E-3,5C000400,-0724,0835,12240,025.9,045.4,0.259,754.0,01.17,0.508
2016-03-27 00:05:00,1909E-3,5C000400,-0724,0835,12187,025.9,045.4,0.259,754.0,01.17,0.508
2016-03-27 00:06:00,1908E-3,5C000400,-0724,0836,12175,025.9,045.4,0.259,754.0,01.17,0.508
2016-03-27 00:07:00,1811E-3,5C000400,-0724,0835,12276,025.9,045.4,0.259,754.0,01.17,0.508
2016-03-27 00:08:00,1781E-3,5C000400,-0724,0835,12291,025.9,045.3,0.259,754.0,01.17,0.508
2016-03-27 00:09:00,1827E-3,5C000400,-0724,0835,12212,025.9,045.3,0.259,754.0,01.17,0.508
2016-03-27 00:10:00,1924E-3,5C000400,-0724,0834,12108,025.9,045.3,0.259,754.0,01.17,0.508
2016-03-27 00:11:00,1794E-3,5C000400,-0724,0835,12208,025.9,045.3,0.259,754.0,01.17,0.508
2016-03-27 00:12:00,1853E-3,5C000400,-0724,0835,12075,025.9,045.3,0.259,754.0,01.17,0.508
2016-03-27 00:13:00,1773E-3,5C000400,-0724,0834,12060,025.9,045.4,0.259,754.0,01.17,0.508
2016-03-27 00:14:00,1825E-3,5C000400,-0724,0834,12210,025.9,045.4,0.259,754.0,01.17,0.508
2016-03-27 00:15:00,1749E-3,5C000400,-0724,0835,12237,025.9,045.4,0.259,754.0,01.17,0.508
2016-03-27 00:16:00,1812E-3,5C000400,-0724,0836,12213,025.9,045.4,0.259,754.0,01.17,0.508
2016-03-27 00:17:00,1764E-3,5C000400,-0724,0834,12115,025.9,045.4,0.259,754.0,01.17,0.508
2016-03-27 00:18:00,1858E-3,5C000400,-0724,0835,12082,025.9,045.3,0.259,754.0,01.17,0.508
2016-03-27 00:19:00,1777E-3,5C000400,-0724,0835,12142,025.9,045.4,0.259,754.0,01.17,0.508
2016-03-27 00:20:00,1794E-3,5C000400,-0724,0835,12156,025.9,045.3,0.259,754.0,01.17,0.508
2016-03-27 00:21:00,1773E-3,5C000400,-0724,0835,12160,025.9,045.4,0.259,754.0,01.17,0.508
2016-03-27 00:22:00,1887E-3,5C000400,-0724,0835,12268,025.9,045.3,0.258,754.0,01.17,0.508
2016-03-27 00:23:00,1885E-3,5C000400,-0724,0835,12230,025.9,045.4,0.259,754.0,01.17,0.508
2016-03-27 00:24:00,1870E-3,5C000400,-0724,0834,12098,025.9,045.4,0.259,754.0,01.17,0.508
2016-03-27 00:25:00,1687E-3,5C000400,-0724,0836,12237,025.9,045.4,0.259,754.0,01.17,0.508
2016-03-27 00:26:00,1752E-3,5C000400,-0724,0835,12219,025.9,045.4,0.259,754.0,01.17,0.508
2016-03-27 00:27:00,1673E-3,5C000400,-0724,0834,12044,025.9,045.3,0.259,754.0,01.17,0.508
2016-03-27 00:28:00,1756E-3,5C000400,-0724,0835,11990,026.0,045.3,0.259,754.0,01.17,0.508
2016-03-27 00:29:00,1810E-3,5C000400,-0724,0835,12137,026.0,045.4,0.259,754.0,01.17,0.508
2016-03-27 00:30:00,1849E-3,5C000400,-0724,0835,12126,025.9,045.4,0.259,754.0,01.17,0.508
2016-03-27 00:31:00,1789E-3,5C000400,-0724,0834,12176,026.0,045.4,0.259,754.0,01.17,0.508
2016-03-27 00:32:00,1843E-3,5C000400,-0724,0835,12148,026.0,045.4,0.259,754.0,01.17,0.508
2016-03-27 00:33:00,1851E-3,5C000400,-0724,0835,12084,026.0,045.4,0.259,754.0,01.17,0.508
2016-03-27 00:34:00,1805E-3,5C000400,-0724,0835,12062,026.0,045.3,0.259,754.0,01.17,0.508
2016-03-27 00:35:00,1759E-3,5C000400,-0724,0835,12271,026.0,045.3,0.258,754.0,01.17,0.508
2016-03-27 00:36:00,1722E-3,5C000400,-0724,0835,12124,026.0,045.4,0.259,754.0,01.17,0.508
2016-03-27 00:37:00,1718E-3,5C000400,-0724,0834,11974,026.0,045.4,0.258,754.0,01.17,0.508
2016-03-27 00:38:00,1869E-3,5C000400,-0724,0835,12165,026.0,045.4,0.259,754.0,01.17,0.508
2016-03-27 00:39:00,1875E-3,5C000400,-0724,0835,12081,026.0,045.4,0.259,754.0,01.17,0.508
2016-03-27 00:40:00,1828E-3,5C000400,-0724,0835,12119,026.0,045.3,0.259,754.1,01.17,0.508
2016-03-27 00:41:00,1883E-3,5C000400,-0724,0835,12252,026.0,045.3,0.259,754.1,01.17,0.508
2016-03-27 00:42:00,1872E-3,5C000400,-0724,0835,12100,026.0,045.4,0.259,754.1,01.17,0.508
2016-03-27 00:43:00,1751E-3,5C000400,-0724,0835,12212,026.0,045.4,0.259,754.1,01.17,0.508
2016-03-27 00:44:00,1890E-3,5C000400,-0724,0835,12164,026.0,045.3,0.259,754.1,01.17,0.508
2016-03-27 00:45:00,1818E-3,5C000400,-0724,0835,12038,026.0,045.4,0.259,754.1,01.17,0.508
2016-03-27 00:46:00,1868E-3,5C000400,-0724,0835,12163,026.0,045.4,0.258,754.1,01.17,0.508
2016-03-27 00:47:00,1839E-3,5C000400,-0724,0834,12169,026.0,045.3,0.259,754.1,01.17,0.508
2016-03-27 00:48:00,1795E-3,5C000400,-0724,0835,12302,026.0,045.3,0.258,754.1,01.17,0.508
2016-03-27 00:49:00,1764E-3,5C000400,-0724,0835,12221,026.0,045.4,0.259,754.1,01.17,0.508
2016-03-27 00:50:00,1765E-3,5C000400,-0724,0834,12135,026.1,045.4,0.259,754.1,01.17,0.508
2016-03-27 00:51:00,1843E-3,5C000400,-0724,0835,12082,026.1,045.3,0.259,754.1,01.17,0.508
2016-03-27 00:52:00,1848E-3,5C000400,-0724,0835,12050,026.0,045.3,0.259,754.1,01.17,0.508
2016-03-27 00:53:00,1718E-3,5C000400,-0724,0836,12183,026.0,045.4,0.259,754.1,01.17,0.508
2016-03-27 00:54:00,1762E-3,5C000400,-0724,0834,12093,026.0,045.4,0.259,754.1,01.17,0.508
2016-03-27 00:55:00,1872E-3,5C000400,-0724,0835,12120,026.1,045.4,0.259,754.0,01.17,0.508
2016-03-27 00:56:00,1909E-3,5C000400,-0724,0834,12117,026.0,045.4,0.259,754.1,01.17,0.508
2016-03-27 00:57:00,1728E-3,5C000400,-0724,0835,12017,026.1,045.4,0.258,754.1,01.17,0.508
2016-03-27 00:58:00,1810E-3,5C000400,-0724,0835,12229,026.1,045.4,0.259,754.0,01.17,0.508
2016-03-27 00:59:00,1830E-3,5C000400,-0724,0835,12116,026.1,045.4,0.258,754.0,01.17,0.508
2016-03-27 01:00:00,1845E-3,5C000400,-0724,0835,12086,026.1,045.4,0.259,754.0,01.17,0.508
2016-03-27 01:01:00,1865E-3,5C000400,-0724,0835,12120,026.1,045.4,0.259,754.0,01.17,0.508
2016-03-27 01:02:00,1902E-3,5C000400,-0724,0834,12266,026.1,045.4,0.259,754.0,01.17,0.508
2016-03-27 01:03:00,1763E-3,5C000400,-0724,0834,11913,026.1,045.4,0.259,754.0,01.17,0.508
2016-03-27 01:04:00,1834E-3,5C000400,-0724,0834,11952,026.1,045.4,0.259,754.1,01.17,0.508
2016-03-27 01:05:00,1871E-3,5C000400,-0724,0834,12127,026.1,045.4,0.259,754.0,01.17,0.508
2016-03-27 01:06:00,1618E-3,5C000400,-0724,0835,12111,026.1,045.4,0.258,754.0,01.17,0.508
2016-03-27 01:07:00,1872E-3,5C000400,-0724,0835,12193,026.1,045.4,0.259,754.0,01.17,0.508
2016-03-27 01:08:00,1786E-3,5C000400,-0724,0835,12121,026.1,045.4,0.258,754.0,01.17,0.508
2016-03-27 01:09:00,1964E-3,5C000400,-0724,0835,12114,026.2,045.4,0.259,754.0,01.17,0.508
2016-03-27 01:10:00,1863E-3,5C000400,-0724,0835,12117,026.1,045.4,0.259,754.0,01.17,0.508
2016-03-27 01:11:00,1783E-3,5C000400,-0724,0834,12185,026.2,045.4,0.259,754.0,01.17,0.508
2016-03-27 01:12:00,1790E-3,5C000400,-0724,0836,12240,026.2,045.4,0.259,754.0,01.17,0.508
2016-03-27 01:13:00,1749E-3,5C000400,-0724,0834,12197,026.2,045.4,0.258,754.0,01.17,0.508
2016-03-27 01:14:00,1873E-3,5C000400,-0724,0835,11973,026.2,045.4,0.259,754.0,01.17,0.508
2016-03-27 01:15:00,1897E-3,5C000400,-0724,0835,12219,026.2,045.4,0.258,754.0,01.17,0.508
2016-03-27 01:16:00,1720E-3,5C000400,-0724,0835,12149,026.2,045.4,0.259,754.0,01.17,0.508
2016-03-27 01:17:00,1824E-3,5C000400,-0724,0834,12034,026.2,045.4,0.259,754.0,01.17,0.508
2016-03-27 01:18:00,1829E-3,5C000400,-0724,0835,12063,026.2,045.3,0.258,754.0,01.17,0.508
2016-03-27 01:19:00,1866E-3,5C000400,-0724,0835,12110,026.2,045.4,0.259,754.0,01.17,0.508
2016-03-27 01:20:00,1759E-3,5C000400,-0724,0835,12201,026.2,045.4,0.258,754.0,01.17,0.508
2016-03-27 01:21:00,1943E-3,5C000400,-0724,0835,12132,026.2,045.4,0.258,754.0,01.17,0.508
2016-03-27 01:22:00,1899E-3,5C000400,-0724,0835,12137,026.2,045.4,0.259,754.0,01.17,0.508
2016-03-27 01:23:00,1730E-3,5C000400,-0724,0835,12098,026.2,045.4,0.258,754.0,01.17,0.508
2016-03-27 01:24:00,1593E-3,5C000400,-0724,0835,12284,026.2,045.4,0.259,754.0,01.17,0.508
2016-03-27 01:25:00,1836E-3,5C000400,-0724,0835,12048,026.2,045.4,0.258,754.0,01.17,0.508
2016-03-27 01:26:00,1845E-3,5C000400,-0724,0835,12141,026.3,045.3,0.259,754.0,01.17,0.508
2016-03-27 01:27:00,1853E-3,5C000400,-0724,0835,12209,026.3,045.3,0.258,754.0,01.17,0.508
2016-03-27 01:28:00,1883E-3,5C000400,-0724,0835,12169,026.3,045.4,0.258,754.0,01.17,0.508
2016-03-27 01:29:00,1786E-3,5C000400,-0724,0835,12178,026.3,045.4,0.258,754.0,01.17,0.508
2016-03-27 01:30:00,1727E-3,5C000400,-0724,0835,12123,026.3,045.4,0.258,754.0,01.17,0.508
2016-03-27 01:31:00,1696E-3,5C000400,-0724,0835,12159,026.2,045.4,0.259,754.0,01.17,0.508
2016-03-27 01:32:00,1780E-3,5C000400,-0724,0835,12092,026.3,045.4,0.258,754.0,01.17,0.508
2016-03-27 01:33:00,1853E-3,5C000400,-0724,0835,12123,026.3,045.4,0.258,754.0,01.17,0.508
2016-03-27 01:34:00,1850E-3,5C000400,-0724,0835,12263,026.3,045.4,0.258,754.0,01.17,0.508
2016-03-27 01:35:00,1894E-3,5C000400,-0724,0835,12113,026.3,045.4,0.258,754.0,01.17,0.508
2016-03-27 01:36:00,1852E-3,5C000400,-0724,0835,12263,026.3,045.4,0.258,754.0,01.17,0.508
2016-03-27 01:37:00,1761E-3,5C000400,-0724,0835,12149,026.3,045.4,0.258,754.0,01.17,0.508
2016-03-27 01:38:00,1885E-3,5C000400,-0724,0834,12217,026.3,045.4,0.259,754.0,01.17,0.508
2016-03-27 01:39:00,1798E-3,5C000400,-0724,0835,12021,026.3,045.4,0.258,754.0,01.17,0.508
2016-03-27 01:40:00,1764E-3,5C000400,-0724,0834,12263,026.4,045.4,0.258,754.0,01.17,0.508
2016-03-27 01:41:00,1842E-3,5C000400,-0724,0834,12277,026.3,045.4,0.258,754.0,01.17,0.508
2016-03-27 01:42:00,1914E-3,5C000400,-0724,0835,12187,026.3,045.4,0.258,754.0,01.17,0.508
2016-03-27 01:43:00,1849E-3,5C000400,-0724,0834,12168,026.3,045.4,0.258,754.0,01.17,0.508
2016-03-27 01:44:00,1892E-3,5C000400,-0724,0835,12065,026.4,045.4,0.258,754.0,01.17,0.508
2016-03-27 01:45:00,1875E-3,5C000400,-0724,0834,12290,026.4,045.4,0.258,754.0,01.17,0.508
2016-03-27 01:46:00,1792E-3,5C000400,-0724,0834,12275,026.4,045.4,0.258,754.0,01.17,0.508
2016-03-27 01:47:00,1837E-3,5C000400,-0724,0835,12187,026.4,045.4,0.258,754.0,01.17,0.508
2016-03-27 01:48:00,1757E-3,5C000400,-0724,0835,12177,026.4,045.4,0.258,753.9,01.17,0.508
2016-03-27 01:49:00,1819E-3,5C000400,-0724,0835,12046,026.4,045.4,0.258,753.9,01.17,0.508
2016-03-27 01:50:00,1905E-3,5C000400,-0724,0835,12204,026.4,045.4,0.258,754.0,01.17,0.508
2016-03-27 01:51:00,1899E-3,5C000400,-0724,0835,12111,026.4,045.4,0.258,753.9,01.17,0.508
2016-03-27 01:52:00,1852E-3,5C000400,-0724,0835,12145,026.4,045.4,0.258,753.9,01.17,0.508
2016-03-27 01:53:00,1920E-3,5C000400,-0724,0835,12065,026.4,045.4,0.258,753.9,01.17,0.508
2016-03-27 01:54:00,1915E-3,5C000400,-0724,0835,12072,026.4,045.4,0.258,753.9,01.17,0.508
2016-03-27 01:55:00,1732E-3,5C000400,-0724,0834,12183,026.4,045.4,0.258,753.9,01.17,0.508
2016-03-27 01:56:00,1789E-3,5C000400,-0724,0835,12101,026.4,045.4,0.258,753.9,01.17,0.508
2016-03-27 01:57:00,1825E-3,5C000400,-0724,0834,12034,026.5,045.4,0.258,753.9,01.17,0.508
2016-03-27 01:58:00,1749E-3,5C000400,-0724,0835,12148,026.4,045.4,0.258,753.9,01.17,0.508
2016-03-27 01:59:00,1772E-3,5C000400,-0724,0834,12093,026.5,045.4,0.258,753.9,01.17,0.508
2016-03-27 02:00:00,1811E-3,5C000400,-0724,0835,12173,026.5,045.4,0.258,753.9,01.17,0.508
2016-03-27 02:01:00,1746E-3,5C000400,-0724,0835,12264,026.5,045.4,0.258,753.9,01.17,0.508
2016-03-27 02:02:00,1816E-3,5C000400,-0724,0835,12120,026.5,045.4,0.258,753.9,01.17,0.508
2016-03-27 02:03:00,1732E-3,5C000400,-0724,0835,12124,026.5,045.4,0.258,753.9,01.17,0.508
2016-03-27 02:04:00,1700E-3,5C000400,-0724,0835,12143,026.5,045.4,0.258,753.9,01.17,0.508
2016-03-27 02:05:00,1826E-3,5C000400,-0724,0835,12160,026.5,045.3,0.258,754.0,01.17,0.508
2016-03-27 02:06:00,1851E-3,5C000400,-0724,0835,12141,026.5,045.4,0.258,754.0,01.17,0.508
2016-03-27 02:07:00,1853E-3,5C000400,-0724,0835,11957,026.5,045.4,0.258,754.0,01.17,0.508
2016-03-27 02:08:00,1848E-3,5C000400,-0724,0835,12207,026.5,045.4,0.258,753.9,01.17,0.508
2016-03-27 02:09:00,1772E-3,5C000400,-0724,0835,12124,026.5,045.4,0.258,753.9,01.17,0.508
2016-03-27 02:10:00,1727E-3,5C000400,-0724,0835,12173,026.5,045.4,0.258,753.9,01.17,0.508
2016-03-27 02:11:00,1775E-3,5C000400,-0724,0836,12264,026.5,045.4,0.258,754.0,01.17,0.508
2016-03-27 02:12:00,1814E-3,5C000400,-0724,0835,12116,026.5,045.4,0.258,753.9,01.17,0.508
2016-03-27 02:13:00,1922E-3,5C000400,-0724,0835,12092,026.5,045.4,0.258,753.9,01.17,0.508
2016-03-27 02:14:00,1798E-3,5C000400,-0724,0834,12253,026.6,045.4,0.258,753.9,01.17,0.508
2016-03-27 02:15:00,1761E-3,5C000400,-0724,0835,11943,026.6,045.4,0.258,753.9,01.17,0.508
2016-03-27 02:16:00,1826E-3,5C000400,-0724,0835,12070,026.6,045.4,0.258,753.9,01.17,0.508
2016-03-27 02:17:00,1941E-3,5C000400,-0724,0835,12174,026.6,045.4,0.258,753.9,01.17,0.508
2016-03-27 02:18:00,1916E-3,5C000400,-0724,0834,12072,026.6,045.4,0.258,753.9,01.17,0.508
2016-03-27 02:19:00,1710E-3,5C000400,-0724,0835,12054,026.6,045.4,0.258,753.9,01.17,0.508
2016-03-27 02:20:00,1850E-3,5C000400,-0724,0835,12245,026.6,045.4,0.258,753.9,01.17,0.508
2016-03-27 02:21:00,1852E-3,5C000400,-0724,0835,12156,026.6,045.4,0.258,753.9,01.17,0.508
2016-03-27 02:22:00,1824E-3,5C000400,-0724,0836,12091,026.6,045.4,0.258,753.9,01.17,0.508
2016-03-27 02:23:00,1847E-3,5C000400,-0724,0835,12053,026.6,045.4,0.257,753.9,01.17,0.508
2016-03-27 02:24:00,1824E-3,5C000400,-0724,0835,11979,026.6,045.4,0.258,753.9,01.17,0.508
2016-03-27 02:25:00,1780E-3,5C000400,-0724,0835,12107,026.6,045.4,0.258,753.9,01.17,0.508
2016-03-27 02:26:00,1770E-3,5C000400,-0724,0835,12119,026.6,045.4,0.258,753.9,01.17,0.508
2016-03-27 02:27:00,1813E-3,5C000400,-0724,0835,11847,026.6,045.4,0.258,753.9,01.17,0.508
2016-03-27 02:28:00,1816E-3,5C000400,-0724,0835,12145,026.7,045.4,0.257,753.9,01.17,0.508
2016-03-27 02:29:00,1747E-3,5C000400,-0724,0835,12192,026.7,045.4,0.258,754.0,01.17,0.508
2016-03-27 02:30:00,1710E-3,5C000400,-0724,0835,12097,026.7,045.4,0.258,754.0,01.17,0.508
2016-03-27 02:31:00,1798E-3,5C000400,-0724,0835,12168,026.7,045.4,0.258,754.0,01.17,0.508
2016-03-27 02:32:00,1736E-3,5C000400,-0724,0836,12131,026.7,045.4,0.258,753.9,01.17,0.508
2016-03-27 02:33:00,1877E-3,5C000400,-0724,0835,12197,026.7,045.4,0.257,753.9,01.17,0.508
2016-03-27 02:34:00,1754E-3,5C000400,-0724,0835,12261,026.7,045.4,0.258,754.0,01.17,0.508
2016-03-27 02:35:00,1787E-3,5C000400,-0724,0835,12107,026.7,045.4,0.258,753.9,01.17,0.508
2016-03-27 02:36:00,1806E-3,5C000400,-0724,0835,12170,026.7,045.4,0.258,754.0,01.17,0.508
2016-03-27 02:37:00,1810E-3,5C000400,-0724,0835,12183,026.7,045.4,0.258,753.9,01.17,0.508
2016-03-27 02:38:00,1752E-3,5C000400,-0724,0835,12111,026.7,045.4,0.257,754.0,01.17,0.508
2016-03-27 02:39:00,1794E-3,5C000400,-0724,0835,12172,026.8,045.4,0.258,754.0,01.17,0.508
2016-03-27 02:40:00,1867E-3,5C000400,-0724,0836,12244,026.7,045.4,0.258,754.0,01.17,0.508
2016-03-27 02:41:00,1799E-3,5C000400,-0724,0835,12154,026.8,045.4,0.258,754.0,01.17,0.508
2016-03-27 02:42:00,1852E-3,5C000400,-0724,0835,12248,026.8,045.4,0.258,754.0,01.17,0.508
2016-03-27 02:43:00,1845E-3,5C000400,-0724,0835,12190,026.8,045.4,0.257,754.0,01.17,0.508
2016-03-27 02:44:00,1833E-3,5C000400,-0724,0836,12371,026.8,045.4,0.258,754.0,01.17,0.508
2016-03-27 02:45:00,1665E-3,5C000400,-0724,0835,12194,026.8,045.4,0.257,754.0,01.17,0.508
2016-03-27 02:46:00,1816E-3,5C000400,-0724,0835,12062,026.8,045.4,0.257,753.9,01.17,0.508
2016-03-27 02:47:00,1785E-3,5C000400,-0724,0834,12078,026.8,045.4,0.258,753.9,01.17,0.508
2016-03-27 02:48:00,1774E-3,5C000400,-0724,0835,12176,026.8,045.4,0.257,753.9,01.17,0.508
2016-03-27 02:49:00,1753E-3,5C000400,-0724,0834,12140,026.8,045.4,0.258,753.9,01.17,0.508
2016-03-27 02:50:00,1831E-3,5C000400,-0724,0835,12126,026.8,045.4,0.257,753.9,01.17,0.508
2016-03-27 02:51:00,1875E-3,5C000400,-0724,0834,12127,026.8,045.4,0.257,753.9,01.17,0.508
2016-03-27 02:52:00,1747E-3,5C000400,-0724,0834,11940,026.8,045.4,0.258,753.9,01.17,0.508
2016-03-27 02:53:00,1767E-3,5C000400,-0724,0835,12089,026.9,045.4,0.257,753.9,01.17,0.508
2016-03-27 02:54:00,1872E-3,5C000400,-0724,0835,12073,026.9,045.4,0.258,753.9,01.17,0.508
2016-03-27 02:55:00,1764E-3,5C000400,-0724,0835,12202,026.9,045.4,0.257,753.9,01.17,0.508
2016-03-27 02:56:00,1721E-3,5C000400,-0724,0836,12090,026.8,045.4,0.257,753.9,01.17,0.508
2016-03-27 02:57:00,1778E-3,5C000400,-0724,0835,12257,026.9,045.4,0.258,753.9,01.17,0.508
2016-03-27 02:58:00,1901E-3,5C000400,-0724,0835,12068,026.9,045.4,0.257,753.9,01.17,0.508
2016-03-27 02:59:00,1825E-3,5C000400,-0724,0835,12105,026.9,045.4,0.257,753.9,01.17,0.508
2016-03-27 03:00:00,1790E-3,5C000400,-0724,0835,12080,026.9,045.4,0.257,753.9,01.17,0.508
2016-03-27 03:01:00,1855E-3,5C000400,-0724,0835,11962,026.9,045.4,0.257,753.9,01.17,0.508
2016-03-27 03:02:00,1873E-3,5C000400,-0724,0835,12248,026.9,045.4,0.258,753.9,01.17,0.508
2016-03-27 03:03:00,1994E-3,5C000400,-0724,0835,12129,026.9,045.4,0.257,753.9,01.17,0.508
2016-03-27 03:04:00,1842E-3,5C000400,-0724,0835,12033,026.9,045.4,0.257,753.9,01.17,0.508
2016-03-27 03:05:00,1896E-3,5C000400,-0724,0835,12098,027.0,045.4,0.257,753.9,01.17,0.508
2016-03-27 03:06:00,1855E-3,5C000400,-0724,0835,12290,026.9,045.4,0.257,753.9,01.17,0.508
2016-03-27 03:07:00,1888E-3,5C000400,-0724,0835,12258,026.9,045.4,0.257,753.9,01.17,0.508
2016-03-27 03:08:00,1853E-3,5C000400,-0724,0835,12180,027.0,045.4,0.257,753.8,01.17,0.508
2016-03-27 03:09:00,1727E-3,5C000400,-0724,0836,12332,027.0,045.4,0.257,753.8,01.17,0.508
2016-03-27 03:10:00,1974E-3,5C000400,-0724,0835,11974,027.0,045.4,0.257,753.8,01.17,0.508
2016-03-27 03:11:00,1889E-3,5C000400,-0724,0835,12065,027.0,045.4,0.257,753.8,01.17,0.508
2016-03-27 03:12:00,1848E-3,5C000400,-0724,0834,12056,027.0,045.4,0.257,753.9,01.17,0.508
2016-03-27 03:13:00,1797E-3,5C000400,-0724,0835,12175,027.0,045.4,0.257,753.8,01.17,0.508
2016-03-27 03:14:00,1830E-3,5C000400,-0724,0835,12179,027.0,045.4,0.257,753.8,01.17,0.508
2016-03-27 03:15:00,1790E-3,5C000400,-0724,0835,12160,027.0,045.4,0.257,753.8,01.17,0.508
2016-03-27 03:16:00,1868E-3,5C000400,-0724,0835,12129,027.1,045.4,0.257,753.8,01.17,0.508
2016-03-27 03:17:00,1801E-3,5C000400,-0724,0835,12103,027.0,045.4,0.257,753.8,01.17,0.508
2016-03-27 03:18:00,1825E-3,5C000400,-0724,0835,12180,027.0,045.4,0.257,753.8,01.17,0.508
2016-03-27 03:19:00,1885E-3,5C000400,-0724,0834,12212,027.1,045.4,0.257,753.8,01.17,0.508
2016-03-27 03:20:00,1928E-3,5C000400,-0724,0836,11998,027.1,045.4,0.257,753.8,01.17,0.508
2016-03-27 03:21:00,1772E-3,5C000400,-0724,0834,12121,027.1,045.4,0.257,753.8,01.17,0.508
2016-03-27 03:22:00,1721E-3,5C000400,-0724,0835,12290,027.1,045.4,0.257,753.9,01.17,0.508
2016-03-27 03:23:00,1788E-3,5C000400,-0724,0834,12016,027.1,045.4,0.257,753.9,01.17,0.508
2016-03-27 03:24:00,1770E-3,5C000400,-0724,0836,12214,027.1,045.4,0.257,753.9,01.17,0.508
2016-03-27 03:25:00,1824E-3,5C000400,-0724,0835,12116,027.1,045.4,0.257,753.9,01.17,0.508
2016-03-27 03:26:00,1851E-3,5C000400,-0724,0835,12125,027.1,045.4,0.257,753.9,01.17,0.508
2016-03-27 03:27:00,1850E-3,5C000400,-0724,0835,12145,027.1,045.4,0.257,753.9,01.17,0.508
2016-03-27 03:28:00,1763E-3,5C000400,-0724,0836,12220,027.1,045.4,0.257,753.9,01.17,0.508
2016-03-27 03:29:00,1899E-3,5C000400,-0724,0835,12137,027.1,045.4,0.256,753.9,01.17,0.508
2016-03-27 03:30:00,1845E-3,5C000400,-0724,0835,12088,027.2,045.4,0.257,753.9,01.17,0.508
2016-03-27 03:31:00,1874E-3,5C000400,-0724,0835,12275,027.1,045.4,0.257,753.8,01.17,0.508
2016-03-27 03:32:00,1854E-3,5C000400,-0724,0835,12121,027.2,045.4,0.257,753.8,01.17,0.508
2016-03-27 03:33:00,1895E-3,5C000400,-0724,0835,12034,027.2,045.4,0.257,753.9,01.17,0.508
2016-03-27 03:34:00,1792E-3,5C000400,-0724,0834,12187,027.2,045.4,0.257,753.9,01.17,0.508
2016-03-27 03:35:00,1723E-3,5C000400,-0724,0835,12090,027.2,045.4,0.257,753.9,01.17,0.508
2016-03-27 03:36:00,1709E-3,5C000400,-0724,0834,12198,027.2,045.4,0.257,753.9,01.17,0.508
2016-03-27 03:37:00,1769E-3,5C000400,-0724,0835,12268,027.2,045.4,0.256,753.9,01.17,0.508
2016-03-27 03:38:00,1773E-3,5C000400,-0724,0835,12170,027.2,045.4,0.257,753.8,01.17,0.508
2016-03-27 03:39:00,1763E-3,5C000400,-0724,0836,12116,027.2,045.4,0.257,753.9,01.17,0.508
2016-03-27 03:40:00,1928E-3,5C000400,-0724,0835,12162,027.3,045.4,0.256,753.9,01.17,0.508
2016-03-27 03:41:00,1870E-3,5C000400,-0724,0835,12095,027.3,045.4,0.257,753.8,01.17,0.508
2016-03-27 03:42:00,1914E-3,5C000400,-0724,0834,12201,027.3,045.4,0.257,753.8,01.17,0.508
2016-03-27 03:43:00,1861E-3,5C000400,-0724,0835,12133,027.3,045.4,0.257,753.8,01.17,0.508
2016-03-27 03:44:00,1792E-3,5C000400,-0724,0835,12205,027.3,045.4,0.257,753.8,01.17,0.508
2016-03-27 03:45:00,1950E-3,5C000400,-0724,0835,12210,027.3,045.4,0.256,753.8,01.17,0.508
2016-03-27 03:46:00,1895E-3,5C000400,-0724,0835,12150,027.3,045.4,0.257,753.8,01.17,0.508
2016-03-27 03:47:00,1826E-3,5C000400,-0724,0835,12071,027.3,045.4,0.257,753.8,01.17,0.508
2016-03-27 03:48:00,1821E-3,5C000400,-0724,0835,12191,027.3,045.4,0.256,753.8,01.17,0.508
2016-03-27 03:49:00,1846E-3,5C000400,-0724,0835,12015,027.3,045.4,0.257,753.8,01.17,0.508
2016-03-27 03:50:00,1803E-3,5C000400,-0724,0835,12136,027.4,045.4,0.257,753.8,01.17,0.508
2016-03-27 03:51:00,1854E-3,5C000400,-0724,0836,12074,027.4,045.4,0.256,753.8,01.17,0.508
2016-03-27 03:52:00,1769E-3,5C000400,-0724,0836,12177,027.4,045.4,0.257,753.8,01.17,0.508
2016-03-27 03:53:00,1903E-3,5C000400,-0724,0835,12185,027.4,045.4,0.256,753.8,01.17,0.508
2016-03-27 03:54:00,1870E-3,5C000400,-0724,0835,12110,027.4,045.4,0.256,753.8,01.17,0.508
2016-03-27 03:55:00,1773E-3,5C000400,-0724,0835,12128,027.4,045.4,0.257,753.8,01.17,0.508
2016-03-27 03:56:00,1869E-3,5C000400,-0724,0835,12040,027.4,045.4,0.256,753.8,01.17,0.508
2016-03-27 03:57:00,1724E-3,5C000400,-0724,0835,12136,027.4,045.4,0.256,753.8,01.17,0.508
2016-03-27 03:58:00,1910E-3,5C000400,-0724,0836,12231,027.4,045.4,0.256,753.8,01.17,0.508
2016-03-27 03:59:00,1944E-3,5C000400,-0724,0834,12006,027.4,045.4,0.256,753.8,01.17,0.508
2016-03-27 04:00:00,1825E-3,5C000400,-0724,0836,12049,027.5,045.4,0.256,753.8,01.17,0.508
2016-03-27 04:01:00,1842E-3,5C000400,-0724,0835,12210,027.5,045.4,0.256,753.7,01.17,0.508
2016-03-27 04:02:00,1861E-3,5C000400,-0724,0835,12183,027.5,045.4,0.256,753.8,01.17,0.508
2016-03-27 04:03:00,1814E-3,5C000400,-0724,0836,12111,027.5,045.4,0.256,753.7,01.17,0.508
2016-03-27 04:04:00,1755E-3,5C000400,-0724,0835,12061,027.5,045.4,0.256,753.7,01.17,0.508
2016-03-27 04:05:00,1807E-3,5C000400,-0724,0834,12181,027.5,045.4,0.256,753.8,01.17,0.508
2016-03-27 04:06:00,1876E-3,5C000400,-0724,0834,11987,027.5,045.4,0.256,753.8,01.17,0.508
2016-03-27 04:07:00,1872E-3,5C000400,-0724,0834,12151,027.5,045.4,0.256,753.8,01.17,0.508
2016-03-27 04:08:00,1905E-3,5C000400,-0724,0836,12158,027.5,045.4,0.256,753.7,01.17,0.508
2016-03-27 04:09:00,1873E-3,5C000400,-0724,0835,12066,027.5,045.4,0.256,753.8,01.17,0.508
2016-03-27 04:10:00,1872E-3,5C000400,-0724,0836,12219,027.5,045.4,0.256,753.7,01.17,0.508
2016-03-27 04:11:00,1886E-3,5C000400,-0724,0836,12230,027.6,045.4,0.256,753.7,01.17,0.508
2016-03-27 04:12:00,1767E-3,5C000400,-0724,0836,12241,027.5,045.4,0.256,753.7,01.17,0.508
2016-03-27 04:13:00,1888E-3,5C000400,-0724,0836,12025,027.6,045.4,0.256,753.7,01.17,0.508
2016-03-27 04:14:00,1780E-3,5C000400,-0724,0835,12186,027.6,045.4,0.256,753.7,01.17,0.508
2016-03-27 04:15:00,1879E-3,5C000400,-0724,0835,12143,027.6,045.4,0.256,753.7,01.17,0.508
2016-03-27 04:16:00,1846E-3,5C000400,-0724,0835,12183,027.6,045.4,0.256,753.7,01.17,0.508
2016-03-27 04:17:00,1751E-3,5C000400,-0724,0835,12182,027.6,045.4,0.256,753.7,01.17,0.508
2016-03-27 04:18:00,1896E-3,5C000400,-0724,0835,12180,027.6,045.4,0.256,753.7,01.17,0.508
2016-03-27 04:19:00,1800E-3,5C000400,-0724,0835,12248,027.6,045.4,0.256,753.7,01.17,0.508
2016-03-27 04:20:00,1927E-3,5C000400,-0724,0836,12191,027.7,045.4,0.256,753.7,01.17,0.508